www.pogodaiklimat.ru

Погода и климат >> Архив погоды >> Австралия >> Северная территория >> Мыс Уэссел


ПОГОДА на Мысе Уэссел

  • Прогноз погоды на Мысе Уэссел
  • Монитор погоды на Мысе Уэссел

АРХИВ ПОГОДЫ на Мысе Уэссел

Время (UTC), дата Ветер
(напр.,м/с)
 
Видим.   Явления Облачность Т
(С)
Тd
(С)
f
(%)
Тe
(С)
Тes
(С)
Комфортность P
(гПа)
Po
(гПа)
Тmin
(С)
Tmax
(С)
R
(мм)
R24
(мм)
S
(см)
11 17.01 СЗ 2 н/о н/о +28.4 +24.8 81 +41 +41 опасность
перегрева
1007.0 1004.8
12 17.01 С 3 н/о н/о +28.9 +24.5 77 +41 +41 опасность
перегрева
1007.4 1005.2
14 17.01 ЮЗ 3 н/о н/о +28.3 +24.3 79 +40 +40 очень
душно
1007.9 1005.7
15 17.01 ЮЗ 1 н/о н/о +27.8 +24.8 84 +40 +40 очень
душно
1007.1 1004.9
17 17.01 СЗ 2 н/о н/о +27.5 +24.6 84 +39 +39 очень
душно
1005.6 1003.4
18 17.01 С 3 н/о н/о +27.4 +24.7 85 +39 +39 очень
душно
1005.1 1002.9
20 17.01 С 2 н/о н/о +27.1 +24.4 85 +38 +38 очень
душно
1005.2 1003.0
21 17.01 С 3 н/о н/о +27.5 +24.7 85 +39 +39 очень
душно
1006.3 1004.1
23 17.01 С 3 н/о н/о +31.1 +25.4 72 +45 +45 опасность
перегрева
1007.5 1005.3
00 18.01 СВ 4 н/о н/о +32.2 +25.5 68 +47 +47 опасность
перегрева
1007.7 1005.5
02 18.01 СВ 4 н/о н/о +33.8 +26.3 65 +50 +50 опасность
перегрева
1007.5 1005.3
03 18.01 СВ 5 н/о н/о +33.3 +24.7 61 +46 +46 опасность
перегрева
1006.9 1004.7
05 18.01 В 4 н/о н/о +32.1 +25.7 69 +47 +47 опасность
перегрева
1005.9 1003.7
06 18.01 СВ 3 н/о н/о +31.9 +25.0 67 +45 +45 опасность
перегрева
1005.4 1003.2
08 18.01 С 1 н/о н/о +30.1 +24.3 71 +42 +42 опасность
перегрева
1005.4 1003.2
09 18.01 СЗ 2 н/о н/о +29.4 +24.7 76 +42 +42 опасность
перегрева
1006.1 1003.9
11 18.01 С 2 н/о н/о +28.6 +25.2 82 +42 +42 опасность
перегрева
1007.4 1005.2
12 18.01 СВ 4 н/о н/о +26.8 +25.0 90 +39 +39 очень
душно
1008.1 1005.9
14 18.01 СВ 4 н/о н/о +27.6 +25.0 86 +40 +40 очень
душно
1008.7 1006.5
15 18.01 СВ 4 н/о н/о +27.9 +24.9 84 +40 +40 очень
душно
1008.1 1005.9
17 18.01 В 4 н/о н/о +27.8 +25.0 85 +40 +40 очень
душно
1006.5 1004.3
18 18.01 ЮВ 2 н/о н/о +26.0 +24.2 90 +36 +36 очень
душно
1006.5 1004.3
20 18.01 В 5 н/о н/о +27.6 +25.4 88 +40 +40 очень
душно
1006.9 1004.7
21 18.01 СВ 5 н/о н/о +27.9 +24.9 84 +40 +40 очень
душно
1007.7 1005.5
23 18.01 СВ 5 н/о н/о +30.3 +26.5 80 +46 +46 опасность
перегрева
1008.7 1006.5
00 19.01 СВ 5 н/о н/о +31.3 +24.9 69 +45 +45 опасность
перегрева
1008.8 1006.6
02 19.01 СВ 5 н/о н/о +33.7 +26.5 66 +50 +50 опасность
перегрева
1008.6 1006.4
03 19.01 СВ 3 н/о н/о +33.0 +26.0 67 +49 +49 опасность
перегрева
1008.0 1005.8
05 19.01 С 4 н/о н/о +28.5 +25.9 86 +43 +43 опасность
перегрева
1006.4 1004.2
06 19.01 В 4 н/о н/о +28.3 +26.5 90 +44 +44 опасность
перегрева
1006.5 1004.3
08 19.01 В 4 н/о н/о +27.6 +25.6 89 +41 +41 опасность
перегрева
1005.6 1003.4
09 19.01 В 2 н/о н/о +26.9 +25.3 91 +39 +39 очень
душно
1005.5 1003.3
11 19.01 ЮВ 4 н/о н/о +27.1 +25.1 89 +39 +39 очень
душно
1007.4 1005.2
12 19.01 В 4 н/о н/о +27.2 +25.2 89 +39 +39 очень
душно
1008.0 1005.8
14 19.01 В 4 н/о н/о +27.7 +25.1 86 +40 +40 очень
душно
1008.3 1006.1
15 19.01 ЮВ 5 н/о н/о +27.9 +25.3 86 +41 +41 опасность
перегрева
1007.4 1005.2
17 19.01 СВ 4 н/о н/о +27.8 +25.2 86 +40 +40 очень
душно
1005.8 1003.6
18 19.01 В 4 н/о н/о +27.9 +25.1 85 +40 +40 очень
душно
1005.4 1003.2
20 19.01 СВ 6 н/о н/о +28.1 +25.1 84 +41 +41 опасность
перегрева
1006.0 1003.8
21 19.01 СВ 6 н/о н/о +28.3 +25.3 84 +41 +41 опасность
перегрева
1006.7 1004.5
23 19.01 СВ 5 н/о н/о +30.0 +26.0 79 +45 +45 опасность
перегрева
1007.9 1005.7
00 20.01 СВ 5 н/о н/о +29.8 +28.2 91 +50 +50 опасность
перегрева
1008.4 1006.2
02 20.01 В 7 н/о н/о +31.3 +23.7 64 +42 +42 опасность
перегрева
1007.7 1005.5
03 20.01 В 7 н/о н/о +32.1 +24.4 64 +45 +45 опасность
перегрева
1007.0 1004.8
05 20.01 В 6 н/о н/о +33.0 +25.8 66 +48 +48 опасность
перегрева
1005.2 1003.0
06 20.01 В 6 н/о н/о +32.8 +25.6 66 +48 +48 опасность
перегрева
1004.9 1002.7
08 20.01 В 6 н/о н/о +30.3 +23.7 68 +41 +41 опасность
перегрева
1005.2 1003.0
09 20.01 В 5 н/о н/о +29.4 +24.3 74 +41 +41 опасность
перегрева
1005.9 1003.7
11 20.01 В 4 н/о н/о +28.1 +24.7 82 +40 +40 очень
душно
1007.5 1005.3
12 20.01 СВ 4 н/о н/о +28.1 +24.3 80 +39 +39 очень
душно
1007.8 1005.6
14 20.01 В 4 н/о н/о +28.5 +24.9 81 +41 +41 опасность
перегрева
1008.4 1006.2
15 20.01 В 4 н/о н/о +28.3 +25.1 83 +41 +41 опасность
перегрева
1007.6 1005.4
17 20.01 В 2 н/о н/о +27.9 +25.1 85 +40 +40 очень
душно
1005.7 1003.5
18 20.01 ЮВ 2 н/о н/о +27.1 +24.4 85 +38 +38 очень
душно
1005.4 1003.2
20 20.01 С 3 н/о н/о +27.0 +24.5 86 +38 +38 очень
душно
1005.8 1003.6
21 20.01 СВ 8 н/о н/о +26.0 +23.7 87 +35 +35 очень
душно
1006.2 1004.0
23 20.01 СВ 5 н/о н/о +27.4 +25.6 90 +40 +40 очень
душно
1007.4 1005.2
00 21.01 С 5 н/о н/о +28.2 +25.8 87 +42 +42 опасность
перегрева
1007.8 1005.6
02 21.01 С 6 н/о н/о +29.1 +26.7 87 +45 +45 опасность
перегрева
1007.4 1005.2
03 21.01 С 5 н/о н/о +29.4 +25.8 81 +44 +44 опасность
перегрева
1006.9 1004.7
05 21.01 С 4 н/о н/о +30.3 +25.6 76 +45 +45 опасность
перегрева
1006.1 1003.9
06 21.01 С 4 н/о н/о +30.5 +25.6 75 +45 +45 опасность
перегрева
1005.6 1003.4
08 21.01 З 3 н/о н/о +30.5 +24.6 71 +43 +43 опасность
перегрева
1005.8 1003.6
09 21.01 З 3 н/о н/о +29.2 +24.5 76 +41 +41 опасность
перегрева
1006.5 1004.3
11 21.01 СЗ 2 н/о н/о +28.2 +25.0 83 +41 +41 опасность
перегрева
1007.5 1005.3
12 21.01 З 3 н/о н/о +28.2 +25.2 84 +41 +41 опасность
перегрева
1007.8 1005.6
14 21.01 СЗ 3 н/о н/о +27.6 +24.0 81 +38 +38 очень
душно
1008.5 1006.3
15 21.01 З 3 н/о н/о +28.0 +25.4 86 +41 +41 опасность
перегрева
1008.2 1006.0
17 21.01 СЗ 4 н/о н/о +28.1 +24.5 81 +40 +40 очень
душно
1006.5 1004.3
18 21.01 СЗ 9 н/о н/о +26.2 +24.2 89 +36 +36 очень
душно
1006.5 1004.3
20 21.01 ЮЗ 5 н/о н/о +26.4 +24.2 88 +37 +37 очень
душно
1006.9 1004.7
21 21.01 Ю 6 н/о н/о +25.3 +23.4 89 +34 +34 очень
душно
1007.2 1005.0
23 21.01 З 10 н/о н/о +25.6 +24.0 91 +35 +35 очень
душно
1009.0 1006.8
00 22.01 СЗ 6 н/о н/о +26.3 +24.5 90 +37 +37 очень
душно
1009.2 1007.0
02 22.01 СЗ 5 н/о н/о +29.6 +25.1 77 +43 +43 опасность
перегрева
1008.8 1006.6
03 22.01 З 4 н/о н/о +29.9 +24.5 73 +42 +42 опасность
перегрева
1008.0 1005.8
05 22.01 СЗ 4 н/о н/о +31.0 +25.6 73 +46 +46 опасность
перегрева
1007.0 1004.8
06 22.01 СЗ 5 н/о н/о +30.7 +24.8 71 +44 +44 опасность
перегрева
1006.8 1004.6
08 22.01 СЗ 11 н/о н/о +28.1 +24.3 80 +39 +39 очень
душно
1007.0 1004.8
09 22.01 СЗ 8 н/о н/о +27.4 +24.7 85 +39 +39 очень
душно
1007.5 1005.3
11 22.01 СЗ 6 н/о н/о +27.6 +24.6 84 +39 +39 очень
душно
1007.9 1005.7
12 22.01 З 7 н/о н/о +28.2 +25.2 84 +41 +41 опасность
перегрева
1008.0 1005.8
14 22.01 З 7 н/о н/о +28.5 +24.9 81 +41 +41 опасность
перегрева
1008.8 1006.6
15 22.01 З 5 н/о н/о +28.3 +25.7 86 +42 +42 опасность
перегрева
1008.3 1006.1
17 22.01 З 5 н/о н/о +27.1 +24.4 85 +38 +38 очень
душно
1007.0 1004.8
18 22.01 З 3 н/о н/о +27.7 +26.1 91 +42 +42 опасность
перегрева
1006.7 1004.5
20 22.01 ЮЗ 4 н/о н/о +27.0 +25.2 90 +39 +39 очень
душно
1006.6 1004.4
21 22.01 ЮЗ 6 н/о н/о +27.8 +25.6 88 +41 +41 опасность
перегрева
1007.4 1005.2
23 22.01 З 9 н/о н/о +28.3 +25.9 87 +42 +42 опасность
перегрева
1008.9 1006.7
00 23.01 З 9 н/о н/о +29.3 +25.1 78 +42 +42 опасность
перегрева
1009.0 1006.8
02 23.01 З 12 н/о н/о +30.3 +24.9 73 +43 +43 опасность
перегрева
1007.6 1005.4
03 23.01 З 9 н/о н/о +31.5 +24.9 68 +45 +45 опасность
перегрева
1006.8 1004.6
05 23.01 З 8 н/о н/о +29.4 +24.3 74 +41 +41 опасность
перегрева
1007.0 1004.8
06 23.01 З 6 н/о н/о +28.4 +24.8 81 +41 +41 опасность
перегрева
1006.8 1004.6
08 23.01 З 5 н/о н/о +27.3 +25.5 90 +40 +40 очень
душно
1006.4 1004.2
09 23.01 ЮЗ 3 н/о н/о +27.4 +26.0 92 +41 +41 опасность
перегрева
1006.8 1004.6
11 23.01 З 5 н/о н/о +27.8 +25.6 88 +41 +41 опасность
перегрева
1007.1 1004.9
12 23.01 З 6 н/о н/о +28.0 +25.2 85 +41 +41 опасность
перегрева
1007.8 1005.6
14 23.01 З 14 н/о н/о +25.4 +24.7 96 +36 +36 очень
душно
1008.3 1006.1
15 23.01 З 9 н/о н/о +25.9 +25.0 95 +37 +37 очень
душно
1007.7 1005.5
17 23.01 З 5 н/о н/о +25.9 +25.2 96 +37 +37 очень
душно
1006.6 1004.4
18 23.01 З 4 н/о н/о +26.0 +25.1 95 +37 +37 очень
душно
1005.9 1003.7
20 23.01 З 10 н/о н/о +27.3 +25.5 90 +40 +40 очень
душно
1005.1 1002.9
21 23.01 З 8 н/о н/о +27.7 +25.9 90 +41 +41 опасность
перегрева
1005.9 1003.7
23 23.01 З 7 н/о н/о +29.2 +25.6 81 +43 +43 опасность
перегрева
1007.0 1004.8
00 24.01 З 7 н/о н/о +29.5 +25.5 79 +43 +43 опасность
перегрева
1007.4 1005.2
02 24.01 СЗ 8 н/о н/о +31.6 +26.4 74 +48 +48 опасность
перегрева
1006.8 1004.6
03 24.01 СЗ 8 н/о н/о +31.3 +25.4 71 +46 +46 опасность
перегрева
1005.9 1003.7
05 24.01 СЗ 8 н/о н/о +31.9 +25.5 69 +46 +46 опасность
перегрева
1004.7 1002.5
06 24.01 СЗ 8 н/о н/о +31.0 +25.4 72 +45 +45 опасность
перегрева
1004.3 1002.1
08 24.01 СЗ 9 н/о н/о +28.6 +25.8 85 +43 +43 опасность
перегрева
1004.6 1002.4
09 24.01 З 9 н/о н/о +28.8 +25.4 82 +42 +42 опасность
перегрева
1005.1 1002.9

 

Местоположение метеостанции Мыс Уэссел (Северная территория, Австралия): широта -11.01 долгота 136.75 высота над уровнем моря 19 м.

В архиве по умолчанию представлена погода на Мысе Уэссел за последнюю неделю. Архивные данные за месяц целиком и за предыдущие месяцы, начиная с января 2011 года, Вы можете получить, выбрав интересующий диапазон дат из раскрывающегося списка и нажав кнопку "Ввод!".


*Определитесь, кто Вы:
робот инопланетянин человек

Внимание! Время в таблицах - всемирное. Для получения местного времени необходимо прибавить поправку, которая равна 9.5 ч.

Смотрите также архив погоды в соседних городах и на ближайших метеорологических станциях:

Погода в Аэропорту Гоув (Северная территория, Австралия) (141 км)
Погода в Галивинку (Северная территория, Австралия) (169 км)
Погода в Милинджимби (Северная территория, Австралия) (236 км)
Погода на Острове Северо-восточный (Северная территория, Австралия) (294 км)
Погода в Манингриде (Северная территория, Австралия) (298 км)
Погода в Аэропорту Грут-Айленд (Северная территория, Австралия) (332 км)
Погода в Уорруви (Северная территория, Австралия) (374 км)
Погода в Булман Уимол (Северная территория, Австралия) (396 км)
Погода на Острове Маклер (Северная территория, Австралия) (412 км)
Погода в Джаберу (Северная территория, Австралия) (458 км)

Пояснения к столбцам:

Ветер - указаны скорость ветра в м/с - средняя за 10 мин, порывы в срок и между сроками (в фигурных скобках) и направление, откуда дует ветер: С - северный, СВ - северо-восточный, В - восточный, ЮВ - юго-восточный, Ю - южный, ЮЗ - юго-западный, З - западный, СЗ - северо-западный.
Видимость - горизонтальная дальность видимости в метрах или километрах. При видимости от 1 до 10 км при отсутствии осадков обычно наблюдается дымка, при ухудшении видимости до 1 км и менее - туман. В сухую погоду видимость может ухудшаться дымом, пылью или мглою.
Явления - указаны атмосферные явления, наблюдавшиеся в срок или в последний час перед сроком; фигурными скобками обозначены явления, наблюдавшиеся между сроками (за 1-3 часа до срока); квадратными скобками обозначены град или гололедные отложения с указанием их диаметра в мм.
Облачность - указаны через наклонную черту общая и нижняя облачность в баллах и высота нижней границы облаков в метрах; квадратными скобками обозначены формы облаков: Ci - перистые, Cs - перисто-слоистые, Cc - перисто-кучевые, Ac - высококучевые, As - высокослоистые, Sc - слоисто-кучевые, Ns - слоисто-дождевые, Cu - кучевые, Cb - кучево-дождевые. Подробнее классификацию облаков см. в Атласе облаков (PDF).
T - Температура воздуха - температура, измеренная на высоте 2 м над землей.
Td - Температура точки росы - температура, при понижении до которой содержащийся в воздухе водяной пар достигнет насыщения.
f - Относительная влажность воздуха - влажноcть воздуха, измеренная на высоте 2 м над землей.
Te - Эффективная температура - температура, которую ощущает одетый по сезону человек в тени. Характеристика душности погоды. При расчете учитывается влияние влажности воздуха и скорости ветра на теплоощущения человека.
Tes - Эффективная температура на солнце - температура, которую ощущает человек, с поправкой на солнечный нагрев. Характеристика знойности погоды. Зависит от высоты солнца над горизонтом, облачности и скорости ветра. Ночью, в пасмурную погоду, а также при ветре 12 м/с и более поправка равна нулю.
P - Атмосферное давление - приведенное к уровню моря атмосферное давление.
Po - Атмосферное давление - измеренное на уровне метеостанции атмосферное давление.
Tmin - Минимальная температура - минимум температуры воздуха на высоте 2 м над землей.
Tmax - Максимальная температура - максимум температуры воздуха на высоте 2 м над землей.
R - Количество осадков - Количество выпавших осадков за период времени, мм. При наведении курсора мыши на число - период времени, за который выпало указанное количество осадков.
R24 - Количество осадков - Количество выпавших осадков за 24 часа, мм.
S - Снежный покров - Высота снежного покрова, см. При наведении курсора мыши на число - состояние снежного покрова и степень покрытия местности в баллах.